Regional Weather Roundup
Issued by NWS

Home | Current Version | Previous Version | Graphics & Text | Print | Product List | Glossary On
Versions: 1 2 3 4 5 6 7 8 9 10 11 12 13 14 15 16 17 18 19 20 21 22 23 24 25 26 27 28 29 30 31 32 33 34 35 36 37 38 39 40 41 42 43 44 45 46 47 48 49 50
000
ASUS43 KBIS 261910
RWRND

NORTH DAKOTA REGIONAL WEATHER ROUNDUP
NATIONAL WEATHER SERVICE BISMARCK ND
200 PM CDT SUN MAR 26 2017

NOTE: "FAIR" INDICATES FEW OR NO CLOUDS BELOW 12,000 FEET WITH NO
SIGNIFICANT WEATHER AND/OR OBSTRUCTIONS TO VISIBILITY.


NDZ001>003-009>011-017-262000-
NORTHWEST NORTH DAKOTA

CITY           SKY/WX    TMP DP  RH WIND       PRES   REMARKS
WILLISTON      FAIR      62  32  32 SW8       29.87F
MINOT          FAIR      58  42  55 NE8       29.89F
MINOT AFB      SUNNY     51  40  65 VRB6      29.89S
$$

NDZ018>021-031>035-040>046-262000-
SOUTHWEST NORTH DAKOTA

CITY           SKY/WX    TMP DP  RH WIND       PRES   REMARKS
BISMARCK       FAIR      60  36  40 CALM      29.93S
DICKINSON      FAIR      58  31  35 VRB7      29.89F
GARRISON         N/A     58  37  45 SW7       29.89F
HETTINGER ARPT CLOUDY    57  34  41 MISG      29.92F
$$

NDZ004>008-012>016-024-026-027-054-262000-
NORTHEAST NORTH DAKOTA

CITY           SKY/WX    TMP DP  RH WIND       PRES   REMARKS
GRAND FORKS    PTSUNNY   44  39  82 S6        29.94F
GRND FRKS AFB  SUNNY     47  40  75 CALM      29.95F
DEVILS LAKE    FAIR      50  39  66 SW5       29.93F
$$

NDZ022-023-025-028>030-036>039-047>053-262000-
SOUTHEAST NORTH DAKOTA

CITY           SKY/WX    TMP DP  RH WIND       PRES   REMARKS
FARGO          CLOUDY    43  37  79 CALM      29.96R
JAMESTOWN      CLOUDY    48  40  73 N3        29.92S
$$




USA.gov is the U.S. government's official web portal to all federal, state and local government web resources and services.